Tracking 20383 objects as of 23-Feb-2020
HD Live streaming from Space Station
objects crossing your sky now
Track the group of recently launched Starlink satellites

NATO 3C

Track NATO 3C now!
NATO 3C is classified as:


NORAD ID: 11115
Int'l Code: 1978-106A
Perigee: 36,273.7 km
Apogee: 36,332.5 km
Inclination: 13.2 °
Period: 1,462.2 minutes
Semi major axis: 42674 km
RCS: 7.0899 m2 (large)
Launch date: November 19, 1978
Source: North Atlantic Treaty Organization (NATO)
Launch site: AIR FORCE EASTERN TEST RANGE (AFETR)
aabbcc
Your satellite tracking list
Your tracking list is empty




NASA's NSSDC Master Catalog

Two Line Element Set (TLE):
1 11115U 78106A   20054.52637774 -.00000002  00000-0  00000+0 0  9995
2 11115  13.2106 333.1359 0006894 334.9630 273.1720  0.98481937632626
Source of the keplerian elements: AFSPC